Weather in Alpharetta

United States     34°04′22″N   84°17′42″W
В апреле 2022 года жителям России запретили посещать сайт meteo.paraplan.net по решению Генеральной прокуратуры. Аудитория сайта уменьшилась в 10 раз. Владельцы сайта не видят смысла в поддержке погодного сервера в таких условиях. Сайт будет закрыт в октябре.
temp.,
°C
wind,
m/s
gust,
m/s
humid.,
%
clouds,
%
prec.,
mm/h
press.,
hPa
HPBL,
m
4 october, tue
tue423:00+20ese2358100 0.0 1019577
02:00+19se3560100 0.0 1019594
05:00+17ese246848 0.0 1019419
08:00+16ese247270 0.0 1021353
11:00+19ssw115591 0.0 1021834
14:00+23wnw34420 0.0 10191650
17:00+24nnw35400 0.0 10161555
20:00+21nnw37490 0.0 1017454
5 october, wed
wed523:00+18nw27510 0.0 1018218
02:00+15nne254739 0.0 1018154
05:00+14ene12472 0.0 101844
08:00+13e11480 0.0 101949
11:00+20wsw11300 0.0 1019633
14:00+25nw332041 0.0 10171407
17:00+25nw442085 0.0 10161499
20:00+21nw3730100 0.0 1017370
6 october, thu
thu623:00+18nw243988 0.0 1018115
02:00+16nw24430 0.0 1018120
05:00+14nnw23490 0.0 1018103
08:00+13nnw12530 0.0 101983
11:00+20nw23320 0.0 1020557
14:00+26nw34190 0.0 10181433
17:00+26nw45200 0.0 10171477
20:00+22nw26320 0.0 1018164
7 october, fri
fri723:00+19nw24370 0.0 101998
02:00+18nw11400 0.0 101921
05:00+17nw22440 0.0 101942
08:00+17wnw24470 0.0 1020108
11:00+24wnw36275 0.0 1021604
14:00+28wnw47245 0.0 10192294
17:00+28nw562739 0.0 10182535
20:00+24nw4937100 0.0 1019716
8 october, sat
sat823:00+20nnw3755100 0.0 1020383
02:00+17nnw3665100 0.0 1021271
05:00+16nw3669100 0.0 1021240
08:00+14nnw2467100 0.0 1023204
11:00+19ene2250100 0.0 1024757
14:00+24wnw1228100 0.0 10221477
17:00+25wnw43190 0.0 10201753
20:00+19nw48290 0.0 1021454